Time,TemperatureF,DewpointF,PressureIn,WindDirection,WindDirectionDegrees,WindSpeedMPH,WindSpeedGustMPH,Humidity,HourlyPrecipIn,Conditions,Clouds,dailyrainin,SoftwareType,DateUTC
2013-06-01 00:00:00,65.8,62.8,-100.00,South,178,0.0,12.0,90,0.00,,,0.05,meteohub,2013-06-01 05:00:00,
2013-06-01 00:05:00,65.7,63.0,-100.00,South,175,4.0,10.0,91,0.00,,,0.05,meteohub,2013-06-01 05:05:00,
2013-06-01 00:10:00,65.5,62.8,-100.00,South,184,0.0,7.0,91,0.00,,,0.05,meteohub,2013-06-01 05:10:00,
2013-06-01 00:15:00,65.5,62.8,-100.00,South,175,0.0,7.0,91,0.00,,,0.05,meteohub,2013-06-01 05:15:00,
2013-06-01 00:20:00,65.5,62.8,-100.00,SSW,200,1.0,10.0,91,0.00,,,0.05,meteohub,2013-06-01 05:20:00,
2013-06-01 00:25:00,65.3,62.6,-100.00,South,169,0.0,10.0,91,0.00,,,0.05,meteohub,2013-06-01 05:25:00,
2013-06-01 00:30:00,65.1,62.4,-100.00,South,178,0.0,10.0,91,0.00,,,0.05,meteohub,2013-06-01 05:30:00,
2013-06-01 00:35:00,65.1,62.4,-100.00,SSE,167,0.0,9.0,91,0.00,,,0.05,meteohub,2013-06-01 05:35:00,
2013-06-01 00:40:00,64.9,62.6,-100.00,South,175,0.0,1.0,92,0.00,,,0.05,meteohub,2013-06-01 05:40:00,
2013-06-01 00:45:00,64.9,62.2,-100.00,SSW,203,0.0,1.0,91,0.00,,,0.05,meteohub,2013-06-01 05:45:00,
2013-06-01 00:50:00,64.8,62.4,-100.00,SSW,203,0.0,1.0,92,0.00,,,0.05,meteohub,2013-06-01 05:50:00,
2013-06-01 00:55:00,64.8,62.4,-100.00,SSW,213,0.0,1.0,92,0.00,,,0.05,meteohub,2013-06-01 05:55:00,
2013-06-01 01:00:00,64.6,62.2,-100.00,SSW,202,2.0,2.0,92,0.00,,,0.05,meteohub,2013-06-01 06:00:00,
2013-06-01 01:05:00,64.6,62.2,-100.00,SSW,200,2.0,6.0,92,0.00,,,0.05,meteohub,2013-06-01 06:05:00,
2013-06-01 01:10:00,64.6,62.2,-100.00,SSW,198,6.0,7.0,92,0.00,,,0.05,meteohub,2013-06-01 06:10:00,
2013-06-01 01:15:00,64.4,62.1,-100.00,SSW,203,0.0,7.0,92,0.00,,,0.05,meteohub,2013-06-01 06:15:00,
2013-06-01 01:20:00,64.2,61.9,-100.00,SSW,195,0.0,7.0,92,0.00,,,0.05,meteohub,2013-06-01 06:20:00,
2013-06-01 01:25:00,64.2,61.9,-100.00,SSW,192,0.0,6.0,92,0.00,,,0.05,meteohub,2013-06-01 06:25:00,
2013-06-01 01:30:00,64.0,61.7,-100.00,South,188,0.0,1.0,92,0.00,,,0.05,meteohub,2013-06-01 06:30:00,
2013-06-01 01:36:00,63.9,61.5,-100.00,South,186,0.0,1.0,92,0.00,,,0.05,meteohub,2013-06-01 06:36:00,
2013-06-01 01:41:00,63.9,61.9,-100.00,South,186,0.0,1.0,93,0.00,,,0.05,meteohub,2013-06-01 06:41:00,
2013-06-01 01:46:00,63.7,61.7,-100.00,South,186,0.0,0.0,93,0.00,,,0.05,meteohub,2013-06-01 06:46:00,
2013-06-01 01:51:00,63.5,61.5,-100.00,South,184,0.0,0.0,93,0.00,,,0.05,meteohub,2013-06-01 06:51:00,
2013-06-01 01:56:00,63.3,61.3,-100.00,South,179,0.0,0.0,93,0.00,,,0.05,meteohub,2013-06-01 06:56:00,
2013-06-01 02:01:00,63.3,61.3,-100.00,South,182,0.0,0.0,93,0.00,,,0.05,meteohub,2013-06-01 07:01:00,
2013-06-01 02:06:00,63.3,61.3,-100.00,South,182,0.0,0.0,93,0.00,,,0.05,meteohub,2013-06-01 07:06:00,
2013-06-01 02:11:00,63.3,61.3,-100.00,SSW,196,0.0,0.0,93,0.00,,,0.05,meteohub,2013-06-01 07:11:00,
2013-06-01 02:16:00,63.3,61.3,-100.00,South,183,0.0,0.0,93,0.00,,,0.05,meteohub,2013-06-01 07:16:00,
2013-06-01 02:21:00,63.1,61.2,-100.00,South,183,0.0,0.0,93,0.00,,,0.05,meteohub,2013-06-01 07:21:00,
2013-06-01 02:26:00,63.1,61.2,-100.00,SSW,194,0.0,0.0,93,0.00,,,0.05,meteohub,2013-06-01 07:26:00,
2013-06-01 02:31:00,63.1,61.2,-100.00,SSW,192,0.0,1.0,93,0.00,,,0.05,meteohub,2013-06-01 07:31:00,
2013-06-01 02:36:00,63.1,61.2,-100.00,South,182,0.0,1.0,93,0.00,,,0.05,meteohub,2013-06-01 07:36:00,
2013-06-01 02:41:00,63.1,61.2,-100.00,South,178,0.0,1.0,93,0.00,,,0.05,meteohub,2013-06-01 07:41:00,
2013-06-01 02:46:00,63.0,61.0,-100.00,SSE,165,0.0,1.0,93,0.00,,,0.05,meteohub,2013-06-01 07:46:00,
2013-06-01 02:51:00,63.0,61.2,-100.00,SSE,165,0.0,0.0,94,0.00,,,0.05,meteohub,2013-06-01 07:51:00,
2013-06-01 02:56:00,62.8,61.0,-100.00,SSE,161,0.0,0.0,94,0.00,,,0.05,meteohub,2013-06-01 07:56:00,
2013-06-01 03:01:00,62.8,61.0,-100.00,SE,144,0.0,0.0,94,0.00,,,0.05,meteohub,2013-06-01 08:01:00,
2013-06-01 03:06:00,62.8,61.0,-100.00,SE,142,0.0,0.0,94,0.00,,,0.05,meteohub,2013-06-01 08:06:00,
2013-06-01 03:11:00,62.8,61.0,-100.00,SE,142,0.0,0.0,94,0.00,,,0.05,meteohub,2013-06-01 08:11:00,
2013-06-01 03:16:00,62.6,60.8,-100.00,SE,141,0.0,0.0,94,0.00,,,0.05,meteohub,2013-06-01 08:16:00,
2013-06-01 03:21:00,62.6,60.8,-100.00,South,191,0.0,0.0,94,0.00,,,0.05,meteohub,2013-06-01 08:21:00,
2013-06-01 03:26:00,62.6,60.8,-100.00,South,190,0.0,0.0,94,0.00,,,0.05,meteohub,2013-06-01 08:26:00,
2013-06-01 03:31:00,62.8,61.0,-100.00,South,186,0.0,0.0,94,0.00,,,0.05,meteohub,2013-06-01 08:31:00,
2013-06-01 03:36:00,62.8,61.0,-100.00,SSW,192,0.0,1.0,94,0.00,,,0.05,meteohub,2013-06-01 08:36:00,
2013-06-01 03:41:00,62.8,61.0,-100.00,South,178,0.0,1.0,94,0.00,,,0.05,meteohub,2013-06-01 08:41:00,
2013-06-01 03:46:00,62.8,61.0,-100.00,South,180,0.0,1.0,94,0.00,,,0.05,meteohub,2013-06-01 08:46:00,
2013-06-01 03:51:00,62.8,61.0,-100.00,South,178,0.0,1.0,94,0.00,,,0.05,meteohub,2013-06-01 08:51:00,
2013-06-01 03:56:00,63.0,61.2,-100.00,South,178,0.0,1.0,94,0.00,,,0.05,meteohub,2013-06-01 08:56:00,
2013-06-01 04:01:00,63.0,61.2,-100.00,SSW,198,0.0,1.0,94,0.00,,,0.05,meteohub,2013-06-01 09:01:00,
2013-06-01 04:06:00,63.0,61.2,-100.00,SSW,198,0.0,0.0,94,0.00,,,0.05,meteohub,2013-06-01 09:06:00,
2013-06-01 04:11:00,63.0,61.2,-100.00,SSW,198,0.0,0.0,94,0.00,,,0.05,meteohub,2013-06-01 09:11:00,
2013-06-01 04:16:00,63.0,61.2,-100.00,SSW,194,0.0,0.0,94,0.00,,,0.05,meteohub,2013-06-01 09:16:00,
2013-06-01 04:21:00,63.0,61.2,-100.00,SSW,194,0.0,0.0,94,0.00,,,0.05,meteohub,2013-06-01 09:21:00,
2013-06-01 04:26:00,62.8,61.0,-100.00,SSW,194,0.0,0.0,94,0.00,,,0.05,meteohub,2013-06-01 09:26:00,
2013-06-01 04:31:00,62.8,61.0,-100.00,SSW,194,0.0,0.0,94,0.00,,,0.05,meteohub,2013-06-01 09:31:00,
2013-06-01 04:36:00,62.6,60.8,-100.00,SSW,192,0.0,0.0,94,0.00,,,0.05,meteohub,2013-06-01 09:36:00,
2013-06-01 04:41:00,62.8,61.0,-100.00,South,184,0.0,0.0,94,0.00,,,0.05,meteohub,2013-06-01 09:41:00,
2013-06-01 04:51:00,63.0,61.2,-100.00,SSW,202,0.0,1.0,94,0.00,,,0.05,meteohub,2013-06-01 09:51:00,
2013-06-01 04:56:00,63.0,61.2,-100.00,SSW,196,0.0,1.0,94,0.00,,,0.05,meteohub,2013-06-01 09:56:00,
2013-06-01 05:01:00,63.0,61.2,-100.00,SSE,149,0.0,1.0,94,0.00,,,0.05,meteohub,2013-06-01 10:01:00,
2013-06-01 05:06:00,63.1,61.3,-100.00,South,173,0.0,1.0,94,0.00,,,0.05,meteohub,2013-06-01 10:06:00,
2013-06-01 05:11:00,63.1,61.3,-100.00,South,172,0.0,1.0,94,0.00,,,0.05,meteohub,2013-06-01 10:11:00,
2013-06-01 05:16:00,63.1,61.3,-100.00,South,171,0.0,1.0,94,0.00,,,0.05,meteohub,2013-06-01 10:16:00,
2013-06-01 05:21:00,63.1,61.3,-100.00,South,171,0.0,1.0,94,0.00,,,0.05,meteohub,2013-06-01 10:21:00,
2013-06-01 05:26:00,63.0,61.2,-100.00,South,171,0.0,0.0,94,0.00,,,0.05,meteohub,2013-06-01 10:26:00,
2013-06-01 05:31:00,63.0,61.2,-100.00,SSE,167,0.0,0.0,94,0.00,,,0.05,meteohub,2013-06-01 10:31:00,
2013-06-01 05:36:00,63.0,61.2,-100.00,SSE,166,0.0,0.0,94,0.00,,,0.05,meteohub,2013-06-01 10:36:00,
2013-06-01 05:41:00,63.0,61.2,-100.00,SSE,166,0.0,0.0,94,0.00,,,0.05,meteohub,2013-06-01 10:41:00,
2013-06-01 05:46:00,63.0,61.2,-100.00,SSE,165,0.0,0.0,94,0.00,,,0.05,meteohub,2013-06-01 10:46:00,
2013-06-01 05:51:00,63.0,61.5,-100.00,SSE,166,0.0,0.0,95,0.00,,,0.05,meteohub,2013-06-01 10:51:00,
2013-06-01 05:56:00,63.0,61.5,-100.00,SSE,165,0.0,0.0,95,0.00,,,0.05,meteohub,2013-06-01 10:56:00,
2013-06-01 06:01:00,63.0,61.5,-100.00,SSE,166,0.0,0.0,95,0.00,,,0.05,meteohub,2013-06-01 11:01:00,
2013-06-01 06:06:00,63.0,61.5,-100.00,SSE,166,0.0,0.0,95,0.00,,,0.05,meteohub,2013-06-01 11:06:00,
2013-06-01 06:11:00,63.0,61.5,-100.00,SSE,167,0.0,0.0,95,0.00,,,0.05,meteohub,2013-06-01 11:11:00,
2013-06-01 06:16:00,63.1,61.7,-100.00,SSE,167,0.0,0.0,95,0.00,,,0.05,meteohub,2013-06-01 11:16:00,
2013-06-01 06:21:00,63.1,61.7,-100.00,SSE,167,0.0,0.0,95,0.00,,,0.05,meteohub,2013-06-01 11:21:00,
2013-06-01 06:26:00,63.1,61.7,-100.00,SSE,167,0.0,0.0,95,0.00,,,0.05,meteohub,2013-06-01 11:26:00,
2013-06-01 06:31:00,63.3,61.9,-100.00,SSE,167,0.0,0.0,95,0.00,,,0.05,meteohub,2013-06-01 11:31:00,
2013-06-01 06:36:00,63.3,61.9,-100.00,SSE,167,0.0,0.0,95,0.00,,,0.05,meteohub,2013-06-01 11:36:00,
2013-06-01 06:41:00,63.7,62.2,-100.00,SE,142,0.0,0.0,95,0.00,,,0.05,meteohub,2013-06-01 11:41:00,
2013-06-01 06:46:00,63.9,62.4,-100.00,SE,138,0.0,0.0,95,0.00,,,0.05,meteohub,2013-06-01 11:46:00,
2013-06-01 06:51:00,63.9,62.4,-100.00,ESE,123,0.0,1.0,95,0.00,,,0.05,meteohub,2013-06-01 11:51:00,
2013-06-01 06:56:00,64.0,62.6,-100.00,ESE,122,0.0,1.0,95,0.00,,,0.05,meteohub,2013-06-01 11:56:00,
2013-06-01 07:01:00,64.0,62.6,-100.00,SE,134,0.0,1.0,95,0.00,,,0.05,meteohub,2013-06-01 12:01:00,
2013-06-01 07:06:00,64.2,62.8,-100.00,South,180,0.0,1.0,95,0.00,,,0.05,meteohub,2013-06-01 12:06:00,
2013-06-01 07:11:00,64.6,63.1,-100.00,SSE,165,0.0,1.0,95,0.00,,,0.05,meteohub,2013-06-01 12:11:00,
2013-06-01 07:17:00,64.9,63.5,-100.00,SSW,196,0.0,1.0,95,0.00,,,0.05,meteohub,2013-06-01 12:17:00,
2013-06-01 07:22:00,65.1,63.7,-100.00,SE,138,0.0,1.0,95,0.00,,,0.05,meteohub,2013-06-01 12:22:00,
2013-06-01 07:27:00,65.3,63.5,-100.00,South,184,0.0,3.0,94,0.00,,,0.05,meteohub,2013-06-01 12:27:00,
2013-06-01 07:32:00,65.7,63.9,-100.00,SE,141,0.0,3.0,94,0.00,,,0.05,meteohub,2013-06-01 12:32:00,
2013-06-01 07:37:00,66.0,64.2,-100.00,SE,130,0.0,6.0,94,0.00,,,0.05,meteohub,2013-06-01 12:37:00,
2013-06-01 07:42:00,66.4,64.6,-100.00,SSE,161,2.0,6.0,94,0.00,,,0.05,meteohub,2013-06-01 12:42:00,
2013-06-01 07:47:00,66.6,64.4,-100.00,South,172,0.0,4.0,93,0.00,,,0.05,meteohub,2013-06-01 12:47:00,
2013-06-01 07:52:00,66.7,64.6,-100.00,SSE,149,0.0,4.0,93,0.00,,,0.05,meteohub,2013-06-01 12:52:00,
2013-06-01 07:57:00,66.7,64.4,-100.00,SSE,163,0.0,6.0,92,0.00,,,0.05,meteohub,2013-06-01 12:57:00,
2013-06-01 08:02:00,66.7,64.4,-100.00,ESE,113,2.0,7.0,92,0.00,,,0.05,meteohub,2013-06-01 13:02:00,
2013-06-01 08:07:00,66.7,64.4,-100.00,ESE,111,2.0,7.0,92,0.00,,,0.05,meteohub,2013-06-01 13:07:00,
2013-06-01 08:12:00,67.1,64.4,-100.00,South,190,2.0,9.0,91,0.00,,,0.05,meteohub,2013-06-01 13:12:00,
2013-06-01 08:17:00,67.3,64.6,-100.00,South,185,2.0,13.0,91,0.00,,,0.05,meteohub,2013-06-01 13:17:00,
2013-06-01 08:22:00,67.3,64.6,-100.00,South,184,9.0,13.0,91,0.00,,,0.05,meteohub,2013-06-01 13:22:00,
2013-06-01 08:27:00,67.5,64.4,-100.00,South,179,0.0,13.0,90,0.00,,,0.05,meteohub,2013-06-01 13:27:00,
2013-06-01 08:32:00,67.6,64.6,-100.00,South,169,2.0,13.0,90,0.00,,,0.05,meteohub,2013-06-01 13:32:00,
2013-06-01 08:37:00,67.6,64.6,-100.00,SSW,203,1.0,13.0,90,0.00,,,0.05,meteohub,2013-06-01 13:37:00,
2013-06-01 08:42:00,67.8,64.8,-100.00,SW,218,5.0,10.0,90,0.00,,,0.05,meteohub,2013-06-01 13:42:00,
2013-06-01 08:47:00,68.0,64.6,-100.00,SSW,208,6.0,10.0,89,0.00,,,0.05,meteohub,2013-06-01 13:47:00,
2013-06-01 08:52:00,68.2,64.8,-100.00,SSE,153,2.0,12.0,89,0.00,,,0.05,meteohub,2013-06-01 13:52:00,
2013-06-01 08:58:00,68.4,64.9,-100.00,SSW,206,2.0,12.0,89,0.00,,,0.05,meteohub,2013-06-01 13:58:00,
2013-06-01 09:03:00,68.5,64.8,-100.00,SW,215,3.0,12.0,88,0.00,,,0.05,meteohub,2013-06-01 14:03:00,
2013-06-01 09:08:00,68.7,64.9,-100.00,South,190,5.0,12.0,88,0.00,,,0.05,meteohub,2013-06-01 14:08:00,
2013-06-01 09:13:00,68.7,64.9,-100.00,SSW,192,3.0,14.0,88,0.00,,,0.05,meteohub,2013-06-01 14:13:00,
2013-06-01 09:21:00,68.9,65.1,-100.00,SSW,207,6.0,14.0,88,0.00,,,0.05,meteohub,2013-06-01 14:21:00,
2013-06-01 09:26:00,69.1,65.1,-100.00,South,183,4.0,12.0,87,0.00,,,0.05,meteohub,2013-06-01 14:26:00,
2013-06-01 09:31:00,69.1,65.1,-100.00,SW,223,7.0,12.0,87,0.00,,,0.05,meteohub,2013-06-01 14:31:00,
2013-06-01 09:36:00,69.1,65.1,-100.00,South,186,8.0,12.0,87,0.00,,,0.05,meteohub,2013-06-01 14:36:00,
2013-06-01 09:41:00,68.9,64.9,-100.00,SW,215,3.0,12.0,87,0.00,,,0.05,meteohub,2013-06-01 14:41:00,
2013-06-01 09:46:00,69.3,65.5,-100.00,SSW,213,7.0,12.0,88,0.00,,,0.05,meteohub,2013-06-01 14:46:00,
2013-06-01 09:51:00,69.4,65.5,-100.00,SW,234,2.0,14.0,87,0.00,,,0.05,meteohub,2013-06-01 14:51:00,
2013-06-01 09:56:00,69.6,65.7,-100.00,SSW,205,1.0,14.0,87,0.00,,,0.05,meteohub,2013-06-01 14:56:00,
2013-06-01 10:01:00,70.0,65.7,-100.00,South,175,0.0,14.0,86,0.00,,,0.05,meteohub,2013-06-01 15:01:00,
2013-06-01 10:06:00,70.2,65.8,-100.00,SSW,210,0.0,12.0,86,0.00,,,0.05,meteohub,2013-06-01 15:06:00,
2013-06-01 10:11:00,70.5,65.8,-100.00,SW,224,9.0,12.0,85,0.00,,,0.05,meteohub,2013-06-01 15:11:00,
2013-06-01 10:16:00,70.5,65.8,-100.00,SSW,200,6.0,12.0,85,0.00,,,0.05,meteohub,2013-06-01 15:16:00,
2013-06-01 10:21:00,70.5,65.8,-100.00,SSW,200,6.0,11.0,85,0.00,,,0.05,meteohub,2013-06-01 15:21:00,
2013-06-01 10:26:00,70.5,65.8,-100.00,WSW,246,9.0,11.0,85,0.00,,,0.05,meteohub,2013-06-01 15:26:00,
2013-06-01 10:31:00,70.5,65.8,-100.00,SW,214,0.0,11.0,85,0.00,,,0.05,meteohub,2013-06-01 15:31:00,
2013-06-01 10:32:00,70.5,65.8,-100.00,WSW,237,1.0,11.0,85,0.00,,,0.05,meteohub,2013-06-01 15:32:00,
2013-06-01 10:37:00,70.5,65.8,-100.00,SW,219,6.0,12.0,85,0.00,,,0.05,meteohub,2013-06-01 15:37:00,
2013-06-01 10:42:00,70.7,66.0,-100.00,SW,235,6.0,16.0,85,0.00,,,0.05,meteohub,2013-06-01 15:42:00,
2013-06-01 10:47:00,70.3,65.7,-100.00,SW,229,1.0,16.0,85,0.00,,,0.05,meteohub,2013-06-01 15:47:00,
2013-06-01 10:52:00,70.7,65.7,-100.00,SW,235,7.0,16.0,84,0.00,,,0.05,meteohub,2013-06-01 15:52:00,
2013-06-01 10:57:00,70.9,65.5,-100.00,SW,234,7.0,16.0,83,0.00,,,0.05,meteohub,2013-06-01 15:57:00,
2013-06-01 11:02:00,71.1,65.7,-100.00,SW,230,1.0,16.0,83,0.00,,,0.05,meteohub,2013-06-01 16:02:00,
2013-06-01 11:07:00,71.4,66.0,-100.00,West,263,1.0,19.0,83,0.00,,,0.05,meteohub,2013-06-01 16:07:00,
2013-06-01 11:12:00,72.7,66.2,-100.00,SW,221,5.0,19.0,80,0.00,,,0.05,meteohub,2013-06-01 16:12:00,
2013-06-01 11:17:00,73.0,66.2,-100.00,SW,220,2.0,16.0,79,0.00,,,0.05,meteohub,2013-06-01 16:17:00,
2013-06-01 11:22:00,72.9,66.0,-100.00,SW,234,2.0,16.0,79,0.00,,,0.05,meteohub,2013-06-01 16:22:00,
2013-06-01 11:27:00,72.1,65.7,-100.00,SW,228,4.0,17.0,80,0.00,,,0.05,meteohub,2013-06-01 16:27:00,
2013-06-01 11:32:00,72.3,66.2,-100.00,WSW,248,1.0,17.0,81,0.00,,,0.05,meteohub,2013-06-01 16:32:00,
2013-06-01 11:37:00,72.9,66.4,-100.00,WSW,244,0.0,17.0,80,0.00,,,0.05,meteohub,2013-06-01 16:37:00,
2013-06-01 11:42:00,73.0,66.6,-100.00,SW,218,3.0,9.0,80,0.00,,,0.05,meteohub,2013-06-01 16:42:00,
2013-06-01 11:47:00,73.0,66.6,-100.00,SW,232,0.0,7.0,80,0.00,,,0.05,meteohub,2013-06-01 16:47:00,
2013-06-01 11:52:00,73.8,66.9,-100.00,SW,230,0.0,6.0,79,0.00,,,0.05,meteohub,2013-06-01 16:52:00,
2013-06-01 11:57:00,73.9,66.2,-100.00,SW,233,1.0,4.0,77,0.00,,,0.05,meteohub,2013-06-01 16:57:00,
2013-06-01 12:02:00,73.9,66.2,-100.00,SW,226,2.0,19.0,77,0.00,,,0.05,meteohub,2013-06-01 17:02:00,
2013-06-01 12:07:00,74.8,66.7,-100.00,SSW,213,0.0,19.0,76,0.00,,,0.05,meteohub,2013-06-01 17:07:00,
2013-06-01 12:12:00,75.9,67.1,-100.00,West,261,0.0,19.0,74,0.00,,,0.05,meteohub,2013-06-01 17:12:00,
2013-06-01 12:17:00,77.2,67.5,-100.00,WSW,242,3.0,11.0,72,0.00,,,0.05,meteohub,2013-06-01 17:17:00,
2013-06-01 12:22:00,77.9,67.3,-100.00,SW,225,4.0,11.0,70,0.00,,,0.05,meteohub,2013-06-01 17:22:00,
2013-06-01 12:27:00,78.3,67.3,-100.00,West,267,3.0,11.0,69,0.00,,,0.05,meteohub,2013-06-01 17:27:00,
2013-06-01 12:32:00,78.1,67.1,-100.00,WSW,254,0.0,10.0,69,0.00,,,0.05,meteohub,2013-06-01 17:32:00,
2013-06-01 12:37:00,77.7,67.1,-100.00,West,269,1.0,14.0,70,0.00,,,0.05,meteohub,2013-06-01 17:37:00,
2013-06-01 12:42:00,78.1,67.5,-100.00,West,271,1.0,14.0,70,0.00,,,0.05,meteohub,2013-06-01 17:42:00,
2013-06-01 12:47:00,78.8,67.8,-100.00,SSW,213,5.0,14.0,69,0.00,,,0.05,meteohub,2013-06-01 17:47:00,
2013-06-01 12:52:00,79.3,67.5,-100.00,WSW,249,1.0,11.0,67,0.00,,,0.05,meteohub,2013-06-01 17:52:00,
2013-06-01 12:57:00,79.9,67.5,-100.00,WNW,282,1.0,11.0,66,0.00,,,0.05,meteohub,2013-06-01 17:57:00,
2013-06-01 13:02:00,79.9,67.1,-100.00,SW,232,6.0,10.0,65,0.00,,,0.05,meteohub,2013-06-01 18:02:00,
2013-06-01 13:07:00,79.0,66.6,-100.00,WSW,239,2.0,9.0,66,0.00,,,0.05,meteohub,2013-06-01 18:07:00,
2013-06-01 13:12:00,78.6,67.1,-100.00,West,281,6.0,9.0,68,0.00,,,0.05,meteohub,2013-06-01 18:12:00,
2013-06-01 13:17:00,77.9,66.6,-100.00,West,277,5.0,10.0,68,0.00,,,0.05,meteohub,2013-06-01 18:17:00,
2013-06-01 13:22:00,76.8,65.5,-100.00,West,278,4.0,12.0,68,0.00,,,0.05,meteohub,2013-06-01 18:22:00,
2013-06-01 13:27:00,77.2,65.3,-100.00,West,276,2.0,13.0,67,0.00,,,0.05,meteohub,2013-06-01 18:27:00,
2013-06-01 13:32:00,77.4,64.8,-100.00,West,261,5.0,13.0,65,0.00,,,0.05,meteohub,2013-06-01 18:32:00,
2013-06-01 13:37:00,76.6,64.4,-100.00,West,271,2.0,13.0,66,0.00,,,0.05,meteohub,2013-06-01 18:37:00,
2013-06-01 13:42:00,76.8,64.9,-100.00,West,266,1.0,13.0,67,0.00,,,0.05,meteohub,2013-06-01 18:42:00,
2013-06-01 13:47:00,77.7,64.6,-100.00,West,281,2.0,15.0,64,0.00,,,0.05,meteohub,2013-06-01 18:47:00,
2013-06-01 13:52:00,78.6,64.9,-100.00,WNW,288,1.0,15.0,63,0.00,,,0.05,meteohub,2013-06-01 18:52:00,
2013-06-01 13:57:00,78.6,64.0,-100.00,West,281,1.0,15.0,61,0.00,,,0.05,meteohub,2013-06-01 18:57:00,
2013-06-01 14:02:00,79.2,64.6,-100.00,West,261,5.0,19.0,61,0.00,,,0.05,meteohub,2013-06-01 19:02:00,
2013-06-01 14:07:00,79.2,64.0,-100.00,WSW,258,0.0,19.0,60,0.00,,,0.05,meteohub,2013-06-01 19:07:00,
2013-06-01 14:12:00,78.6,64.0,-100.00,West,259,1.0,19.0,61,0.00,,,0.05,meteohub,2013-06-01 19:12:00,
2013-06-01 14:17:00,79.3,64.2,-100.00,WNW,296,3.0,17.0,60,0.00,,,0.05,meteohub,2013-06-01 19:17:00,
2013-06-01 14:22:00,80.1,64.9,-100.00,West,265,0.0,17.0,60,0.00,,,0.05,meteohub,2013-06-01 19:22:00,
2013-06-01 14:27:00,80.1,63.0,-100.00,WNW,287,12.0,15.0,56,0.00,,,0.05,meteohub,2013-06-01 19:27:00,
2013-06-01 14:32:00,79.3,63.3,-100.00,West,269,3.0,15.0,58,0.00,,,0.05,meteohub,2013-06-01 19:32:00,
2013-06-01 14:37:00,79.5,63.5,-100.00,West,263,5.0,16.0,58,0.00,,,0.05,meteohub,2013-06-01 19:37:00,
2013-06-01 14:42:00,79.9,63.3,-100.00,WSW,238,4.0,16.0,57,0.00,,,0.05,meteohub,2013-06-01 19:42:00,
2013-06-01 14:47:00,79.3,63.3,-100.00,WSW,249,2.0,16.0,58,0.00,,,0.05,meteohub,2013-06-01 19:47:00,
2013-06-01 14:52:00,79.0,62.4,-100.00,West,264,0.0,16.0,57,0.00,,,0.05,meteohub,2013-06-01 19:52:00,
2013-06-01 14:57:00,79.2,62.6,-100.00,SW,236,12.0,18.0,57,0.00,,,0.05,meteohub,2013-06-01 19:57:00,
2013-06-01 15:02:00,78.3,60.8,-100.00,SW,225,2.0,19.0,55,0.00,,,0.05,meteohub,2013-06-01 20:02:00,
2013-06-01 15:07:00,78.3,60.8,-100.00,SW,235,5.0,19.0,55,0.00,,,0.05,meteohub,2013-06-01 20:07:00,
2013-06-01 15:12:00,78.1,59.0,-100.00,WSW,238,4.0,19.0,52,0.00,,,0.05,meteohub,2013-06-01 20:12:00,
2013-06-01 15:17:00,78.1,59.0,-100.00,West,268,0.0,17.0,52,0.00,,,0.05,meteohub,2013-06-01 20:17:00,
2013-06-01 15:22:00,78.3,57.0,-100.00,WSW,239,3.0,18.0,48,0.00,,,0.05,meteohub,2013-06-01 20:22:00,
2013-06-01 15:27:00,78.1,57.9,-100.00,West,272,16.0,22.0,50,0.00,,,0.05,meteohub,2013-06-01 20:27:00,
2013-06-01 15:32:00,78.1,57.9,-100.00,WNW,286,10.0,22.0,50,0.00,,,0.05,meteohub,2013-06-01 20:32:00,
2013-06-01 15:37:00,78.6,57.9,-100.00,West,259,2.0,22.0,49,0.00,,,0.05,meteohub,2013-06-01 20:37:00,
2013-06-01 15:42:00,78.8,58.1,-100.00,WSW,241,5.0,18.0,49,0.00,,,0.05,meteohub,2013-06-01 20:42:00,
2013-06-01 15:47:00,78.3,57.6,-100.00,WSW,242,4.0,18.0,49,0.00,,,0.05,meteohub,2013-06-01 20:47:00,
2013-06-01 15:52:00,77.7,57.6,-100.00,SW,227,3.0,24.0,50,0.00,,,0.05,meteohub,2013-06-01 20:52:00,
2013-06-01 15:57:00,78.3,58.6,-100.00,West,269,20.0,24.0,51,0.00,,,0.05,meteohub,2013-06-01 20:57:00,
2013-06-01 16:02:00,77.4,57.7,-100.00,West,271,12.0,24.0,51,0.00,,,0.05,meteohub,2013-06-01 21:02:00,
2013-06-01 16:07:00,76.6,58.8,-100.00,SW,222,4.0,23.0,54,0.00,,,0.05,meteohub,2013-06-01 21:07:00,
2013-06-01 16:12:00,77.2,59.2,-100.00,SW,230,5.0,23.0,54,0.00,,,0.05,meteohub,2013-06-01 21:12:00,
2013-06-01 16:17:00,76.6,58.8,-100.00,West,266,13.0,23.0,54,0.00,,,0.05,meteohub,2013-06-01 21:17:00,
2013-06-01 16:22:00,75.7,58.5,-100.00,NW,325,3.0,27.0,55,0.00,,,0.05,meteohub,2013-06-01 21:22:00,
2013-06-01 16:27:00,75.7,58.5,-100.00,West,259,18.0,27.0,55,0.00,,,0.05,meteohub,2013-06-01 21:27:00,
2013-06-01 16:32:00,75.4,58.6,-100.00,West,277,10.0,28.0,56,0.00,,,0.05,meteohub,2013-06-01 21:32:00,
2013-06-01 16:37:00,74.8,57.6,-100.00,WSW,239,2.0,28.0,55,0.00,,,0.05,meteohub,2013-06-01 21:37:00,
2013-06-01 16:42:00,75.2,58.5,-100.00,WSW,241,9.0,28.0,56,0.00,,,0.05,meteohub,2013-06-01 21:42:00,
2013-06-01 16:47:00,75.7,57.9,-100.00,West,265,7.0,20.0,54,0.00,,,0.05,meteohub,2013-06-01 21:47:00,
2013-06-01 16:52:00,75.0,57.7,-100.00,WSW,247,13.0,20.0,55,0.00,,,0.05,meteohub,2013-06-01 21:52:00,
2013-06-01 16:57:00,74.3,57.6,-100.00,WNW,284,9.0,22.0,56,0.00,,,0.05,meteohub,2013-06-01 21:57:00,
2013-06-01 17:02:00,75.4,58.6,-100.00,WNW,286,11.0,22.0,56,0.00,,,0.05,meteohub,2013-06-01 22:02:00,
2013-06-01 17:07:00,75.2,57.9,-100.00,SW,229,7.0,22.0,55,0.00,,,0.05,meteohub,2013-06-01 22:07:00,
2013-06-01 17:12:00,75.0,57.2,-100.00,WNW,288,5.0,23.0,54,0.00,,,0.05,meteohub,2013-06-01 22:12:00,
2013-06-01 17:17:00,75.0,57.7,-100.00,WSW,254,6.0,23.0,55,0.00,,,0.05,meteohub,2013-06-01 22:17:00,
2013-06-01 17:22:00,74.8,57.6,-100.00,WNW,283,11.0,20.0,55,0.00,,,0.05,meteohub,2013-06-01 22:22:00,
2013-06-01 17:27:00,74.7,58.5,-100.00,WNW,287,8.0,19.0,57,0.00,,,0.05,meteohub,2013-06-01 22:27:00,
2013-06-01 17:32:00,74.1,57.9,-100.00,WSW,250,4.0,19.0,57,0.00,,,0.05,meteohub,2013-06-01 22:32:00,
2013-06-01 17:37:00,73.2,57.6,-100.00,West,267,0.0,19.0,58,0.00,,,0.05,meteohub,2013-06-01 22:37:00,
2013-06-01 17:42:00,73.0,58.3,-100.00,West,267,0.0,21.0,60,0.00,,,0.05,meteohub,2013-06-01 22:42:00,
2013-06-01 17:47:00,73.2,57.6,-100.00,SW,234,14.0,21.0,58,0.00,,,0.05,meteohub,2013-06-01 22:47:00,
2013-06-01 17:52:00,73.6,57.9,-100.00,West,279,12.0,21.0,58,0.00,,,0.05,meteohub,2013-06-01 22:52:00,
2013-06-01 17:57:00,73.6,57.9,-100.00,West,278,0.0,23.0,58,0.00,,,0.05,meteohub,2013-06-01 22:57:00,
2013-06-01 18:02:00,73.8,58.1,-100.00,WNW,295,3.0,23.0,58,0.00,,,0.05,meteohub,2013-06-01 23:02:00,
2013-06-01 18:07:00,73.0,57.9,-100.00,NW,306,16.0,20.0,59,0.00,,,0.05,meteohub,2013-06-01 23:07:00,
2013-06-01 18:12:00,73.0,57.9,-100.00,NNW,337,5.0,20.0,59,0.00,,,0.05,meteohub,2013-06-01 23:12:00,
2013-06-01 18:17:00,72.9,57.7,-100.00,SW,227,12.0,22.0,59,0.00,,,0.05,meteohub,2013-06-01 23:17:00,
2013-06-01 18:22:00,72.1,57.6,-100.00,WSW,251,14.0,22.0,60,0.00,,,0.05,meteohub,2013-06-01 23:22:00,
2013-06-01 18:27:00,71.2,57.6,-100.00,West,281,1.0,22.0,62,0.00,,,0.05,meteohub,2013-06-01 23:27:00,
2013-06-01 18:32:00,71.1,57.7,-100.00,West,278,5.0,20.0,63,0.00,,,0.05,meteohub,2013-06-01 23:32:00,
2013-06-01 18:37:00,71.1,58.3,-100.00,West,279,13.0,20.0,64,0.00,,,0.05,meteohub,2013-06-01 23:37:00,
2013-06-01 18:42:00,70.9,58.1,-100.00,SW,234,6.0,20.0,64,0.00,,,0.05,meteohub,2013-06-01 23:42:00,
2013-06-01 18:47:00,70.7,57.9,-100.00,West,275,12.0,20.0,64,0.00,,,0.05,meteohub,2013-06-01 23:47:00,
2013-06-01 18:52:00,70.5,57.7,-100.00,West,273,17.0,19.0,64,0.00,,,0.05,meteohub,2013-06-01 23:52:00,
2013-06-01 18:57:00,70.3,57.6,-100.00,West,272,12.0,19.0,64,0.00,,,0.05,meteohub,2013-06-01 23:57:00,
2013-06-01 19:02:00,70.0,58.1,-100.00,WSW,251,1.0,22.0,66,0.00,,,0.05,meteohub,2013-06-02 00:02:00,
2013-06-01 19:07:00,69.6,57.7,-100.00,West,278,3.0,22.0,66,0.00,,,0.00,meteohub,2013-06-02 00:07:00,
2013-06-01 19:12:00,69.6,58.1,-100.00,West,281,12.0,22.0,67,0.00,,,0.00,meteohub,2013-06-02 00:12:00,
2013-06-01 19:17:00,69.4,57.9,-100.00,West,275,0.0,21.0,67,0.00,,,0.00,meteohub,2013-06-02 00:17:00,
2013-06-01 19:22:00,69.3,58.3,-100.00,West,271,6.0,21.0,68,0.00,,,0.00,meteohub,2013-06-02 00:22:00,
2013-06-01 19:27:00,69.3,58.3,-100.00,WNW,302,9.0,19.0,68,0.00,,,0.00,meteohub,2013-06-02 00:27:00,
2013-06-01 19:32:00,69.1,58.5,-100.00,West,271,2.0,14.0,69,0.00,,,0.00,meteohub,2013-06-02 00:32:00,
2013-06-01 19:37:00,68.9,58.3,-100.00,SW,235,3.0,15.0,69,0.00,,,0.00,meteohub,2013-06-02 00:37:00,
2013-06-01 19:42:00,68.5,57.9,-100.00,WSW,248,3.0,23.0,69,0.00,,,0.00,meteohub,2013-06-02 00:42:00,
2013-06-01 19:47:00,68.4,58.3,-100.00,West,273,2.0,23.0,70,0.00,,,0.00,meteohub,2013-06-02 00:47:00,
2013-06-01 19:52:00,68.4,58.3,-100.00,WNW,286,6.0,23.0,70,0.00,,,0.00,meteohub,2013-06-02 00:52:00,
2013-06-01 19:57:00,68.0,58.3,-100.00,WNW,290,16.0,17.0,71,0.00,,,0.00,meteohub,2013-06-02 00:57:00,
2013-06-01 20:02:00,67.3,59.0,-100.00,WSW,258,6.0,17.0,75,0.00,,,0.00,meteohub,2013-06-02 01:02:00,
2013-06-01 20:07:00,66.4,59.0,-100.00,West,264,14.0,23.0,77,0.00,,,0.00,meteohub,2013-06-02 01:07:00,
2013-06-01 20:12:00,65.8,58.8,-100.00,WNW,288,3.0,23.0,78,0.00,,,0.00,meteohub,2013-06-02 01:12:00,
2013-06-01 20:17:00,65.7,59.0,-100.00,WNW,301,2.0,21.0,79,0.00,,,0.00,meteohub,2013-06-02 01:17:00,
2013-06-01 20:22:00,65.3,58.6,-100.00,West,273,15.0,20.0,79,0.00,,,0.00,meteohub,2013-06-02 01:22:00,
2013-06-01 20:27:00,64.8,58.5,-100.00,WNW,287,9.0,20.0,80,0.00,,,0.00,meteohub,2013-06-02 01:27:00,
2013-06-01 20:32:00,64.0,58.5,-100.00,West,279,13.0,20.0,82,0.00,,,0.00,meteohub,2013-06-02 01:32:00,
2013-06-01 20:37:00,63.7,58.5,-100.00,WNW,294,11.0,25.0,83,0.00,,,0.00,meteohub,2013-06-02 01:37:00,
2013-06-01 20:42:00,63.1,58.3,-100.00,West,263,0.0,25.0,84,0.00,,,0.00,meteohub,2013-06-02 01:42:00,
2013-06-01 20:47:00,63.1,58.3,-100.00,SW,234,5.0,22.0,84,0.00,,,0.00,meteohub,2013-06-02 01:47:00,
2013-06-01 20:52:00,63.1,58.3,-100.00,West,265,0.0,17.0,84,0.00,,,0.00,meteohub,2013-06-02 01:52:00,
2013-06-01 20:57:00,63.1,58.3,-100.00,WSW,239,4.0,15.0,84,0.00,,,0.00,meteohub,2013-06-02 01:57:00,
2013-06-01 21:02:00,63.1,58.3,-100.00,West,267,5.0,15.0,84,0.00,,,0.00,meteohub,2013-06-02 02:02:00,
2013-06-01 21:07:00,63.1,58.3,-100.00,SSW,211,0.0,15.0,84,0.00,,,0.00,meteohub,2013-06-02 02:07:00,
2013-06-01 21:12:00,63.3,58.8,-100.00,West,260,11.0,15.0,85,0.00,,,0.00,meteohub,2013-06-02 02:12:00,
2013-06-01 21:17:00,63.3,58.8,-100.00,West,272,1.0,15.0,85,0.00,,,0.00,meteohub,2013-06-02 02:17:00,
2013-06-01 21:22:00,63.3,58.8,-100.00,West,263,6.0,15.0,85,0.00,,,0.00,meteohub,2013-06-02 02:22:00,
2013-06-01 21:27:00,63.1,58.6,-100.00,SW,230,0.0,15.0,85,0.00,,,0.00,meteohub,2013-06-02 02:27:00,
2013-06-01 21:32:00,63.1,58.6,-100.00,WNW,290,7.0,12.0,85,0.00,,,0.00,meteohub,2013-06-02 02:32:00,
2013-06-01 21:37:00,63.1,58.6,-100.00,West,265,6.0,14.0,85,0.00,,,0.00,meteohub,2013-06-02 02:37:00,
2013-06-01 21:42:00,63.1,58.6,-100.00,WSW,254,0.0,14.0,85,0.00,,,0.00,meteohub,2013-06-02 02:42:00,
2013-06-01 21:47:00,63.1,58.6,-100.00,West,262,5.0,14.0,85,0.00,,,0.00,meteohub,2013-06-02 02:47:00,
2013-06-01 21:52:00,63.1,58.6,-100.00,West,269,5.0,13.0,85,0.00,,,0.00,meteohub,2013-06-02 02:52:00,
2013-06-01 21:57:00,63.1,58.6,-100.00,West,273,1.0,13.0,85,0.00,,,0.00,meteohub,2013-06-02 02:57:00,
2013-06-01 22:03:00,63.1,58.6,-100.00,West,268,0.0,13.0,85,0.00,,,0.00,meteohub,2013-06-02 03:03:00,
2013-06-01 22:08:00,63.1,58.3,-100.00,West,268,10.0,13.0,84,0.00,,,0.00,meteohub,2013-06-02 03:08:00,
2013-06-01 22:13:00,63.1,58.3,-100.00,WSW,253,0.0,19.0,84,0.00,,,0.00,meteohub,2013-06-02 03:13:00,
2013-06-01 22:18:00,63.1,57.6,-100.00,WNW,283,7.0,19.0,82,0.00,,,0.00,meteohub,2013-06-02 03:18:00,
2013-06-01 22:23:00,63.1,57.6,-100.00,West,261,10.0,19.0,82,0.00,,,0.00,meteohub,2013-06-02 03:23:00,
2013-06-01 22:28:00,63.1,57.6,-100.00,West,263,0.0,19.0,82,0.00,,,0.00,meteohub,2013-06-02 03:28:00,
2013-06-01 22:33:00,63.1,57.6,-100.00,West,269,1.0,15.0,82,0.00,,,0.00,meteohub,2013-06-02 03:33:00,
2013-06-01 22:38:00,63.0,57.0,-100.00,SW,236,2.0,15.0,81,0.00,,,0.00,meteohub,2013-06-02 03:38:00,
2013-06-01 22:43:00,63.0,57.0,-100.00,West,275,0.0,19.0,81,0.00,,,0.00,meteohub,2013-06-02 03:43:00,
2013-06-01 22:48:00,62.8,56.8,-100.00,WNW,291,14.0,20.0,81,0.00,,,0.00,meteohub,2013-06-02 03:48:00,
2013-06-01 22:53:00,62.8,56.8,-100.00,West,275,7.0,21.0,81,0.00,,,0.00,meteohub,2013-06-02 03:53:00,
2013-06-01 22:58:00,62.8,56.8,-100.00,WNW,284,5.0,21.0,81,0.00,,,0.00,meteohub,2013-06-02 03:58:00,
2013-06-01 23:01:00,62.6,57.0,-100.00,WNW,283,12.0,20.0,82,0.00,,,0.00,meteohub,2013-06-02 04:01:00,
2013-06-01 23:06:00,62.4,56.8,-100.00,NW,304,11.0,20.0,82,0.00,,,0.00,meteohub,2013-06-02 04:06:00,
2013-06-01 23:11:00,62.2,56.7,-100.00,West,264,12.0,18.0,82,0.00,,,0.00,meteohub,2013-06-02 04:11:00,
2013-06-01 23:16:00,62.2,56.7,-100.00,WNW,282,11.0,18.0,82,0.00,,,0.00,meteohub,2013-06-02 04:16:00,
2013-06-01 23:21:00,62.1,56.8,-100.00,NW,306,6.0,18.0,83,0.00,,,0.00,meteohub,2013-06-02 04:21:00,
2013-06-01 23:26:00,62.1,56.8,-100.00,WNW,284,4.0,15.0,83,0.00,,,0.00,meteohub,2013-06-02 04:26:00,
2013-06-01 23:31:00,62.1,56.8,-100.00,West,281,7.0,17.0,83,0.00,,,0.00,meteohub,2013-06-02 04:31:00,
2013-06-01 23:36:00,62.1,57.2,-100.00,WSW,257,11.0,17.0,84,0.00,,,0.00,meteohub,2013-06-02 04:36:00,
2013-06-01 23:41:00,62.1,57.2,-100.00,West,277,10.0,17.0,84,0.00,,,0.00,meteohub,2013-06-02 04:41:00,
2013-06-01 23:46:00,62.1,57.2,-100.00,WNW,286,1.0,14.0,84,0.00,,,0.00,meteohub,2013-06-02 04:46:00,
2013-06-01 23:51:00,61.9,57.0,-100.00,West,261,5.0,14.0,84,0.00,,,0.00,meteohub,2013-06-02 04:51:00,
2013-06-01 23:56:00,61.9,57.0,-100.00,West,268,0.0,13.0,84,0.00,,,0.00,meteohub,2013-06-02 04:56:00,